Weather History for Charlottetown, PE

Change the Weather History Date:

Wednesday, October 17, 2012

  Actual Average Record
Temperature  
Mean Temperature 44 °F -  
Max Temperature 50 °F 48 °F 68 °F (2013)
Min Temperature 39 °F 34 °F 30 °F (2000)
Degree Days  
Heating Degree Days 20    
Moisture  
Dew Point 38 °F    
Average Humidity 74    
Maximum Humidity 87    
Minimum Humidity 59    
Precipitation  
Precipitation 0.00 in 0.15 in - ()
Sea Level Pressure  
Sea Level Pressure 29.77 in    
Wind  
Wind Speed 11 mph ()    
Max Wind Speed 22 mph    
Max Gust Speed 30 mph    
Visibility 15.0 miles    
Events      
Averages and records for this station are not official NWS values.
T = Trace of Precipitation, MM = Missing Value Source: Averaged Metar Reports

Daily Weather History Graph

Daily Weather History Graph

Search for Another Location

Airport:

Trip Planner

Search our weather history database for the weather conditions in past years. The results will help you decide how hot, cold, wet, or windy it might be!

Date:

Astronomy

Oct. 17, 2012 Rise Set
Actual Time 7:33 AM ADT 6:21 PM ADT
Civil Twilight 7:02 AM ADT 6:52 PM ADT
Nautical Twilight 6:27 AM ADT 7:26 PM ADT
Astronomical Twilight 5:52 AM ADT 8:01 PM ADT
Moon 10:12 AM ADT (10/17) 7:42 PM ADT (10/17)
Length of Visible Light 11h 49m
Length of Day
10h 48m
Waxing Crescent, 6% of the Moon is Illuminated
Oct 17
Waxing Crescent
Oct 22
First Quarter
Oct 29
Full
Nov 6
Last Quarter
Nov 13
New

Hourly Weather History & Observations

Time (ADT) Temp. Windchill Dew Point Humidity Pressure Visibility Wind Dir Wind Speed Gust Speed Precip Events Conditions
12:00 AM 48.2 °F - 42.8 °F 82% 29.57 in 15.0 mi WSW 17.3 mph 23.0 mph N/A   Mostly Cloudy
1:00 AM 46.4 °F 38.5 °F 41.0 °F 81% 29.59 in 15.0 mi West 21.9 mph 29.9 mph N/A   Mostly Cloudy
3:00 AM 43 °F - 36 °F 70% 29.65 in 15 mi WSW 11.5 mph - -   Scattered Clouds
3:00 AM 42.8 °F 36.2 °F 35.6 °F 76% 29.65 in 15.0 mi WSW 12.7 mph 18.4 mph N/A   Partly Cloudy
5:00 AM 42.8 °F 36.2 °F 37.4 °F 81% 29.68 in 15.0 mi WSW 12.7 mph 20.7 mph N/A   Mostly Cloudy
6:00 AM 41.0 °F 34.7 °F 37.4 °F 87% 29.69 in 15.0 mi WSW 10.4 mph - N/A   Mostly Cloudy
7:00 AM 41.0 °F 34.3 °F 35.6 °F 81% 29.72 in 15.0 mi WSW 11.5 mph - N/A   Scattered Clouds
8:00 AM 39.2 °F 32.0 °F 35.6 °F 87% 29.75 in 15.0 mi WSW 11.5 mph 18.4 mph N/A   Mostly Cloudy
9:00 AM 42 °F - 36 °F 73% 29.76 in 15 mi West 13.8 mph - -   Scattered Clouds
9:00 AM 41.0 °F 33.9 °F 35.6 °F 81% 29.76 in 15.0 mi West 12.7 mph 23.0 mph N/A   Scattered Clouds
10:00 AM 44.6 °F 37.8 °F 37.4 °F 76% 29.78 in 15.0 mi West 15.0 mph 23.0 mph N/A   Mostly Cloudy
11:00 AM 46.4 °F 41.1 °F 37.4 °F 71% 29.79 in 15.0 mi West 11.5 mph 21.9 mph N/A   Mostly Cloudy
12:00 PM 48.2 °F - 37.4 °F 66% 29.80 in 15.0 mi West 9.2 mph - N/A   Mostly Cloudy
1:00 PM 50.0 °F - 37.4 °F 62% 29.79 in 15.0 mi WNW 11.5 mph - N/A   Mostly Cloudy
2:00 PM 50.0 °F - 37.4 °F 62% 29.78 in 15.0 mi NW 9.2 mph 18.4 mph N/A   Mostly Cloudy
3:00 PM 49 °F - 39 °F 59% 29.78 in 15 mi NW 9.2 mph - -   Mostly Cloudy
3:00 PM 48.2 °F - 39.2 °F 71% 29.78 in 15.0 mi NW 9.2 mph - N/A   Mostly Cloudy
4:00 PM 48.2 °F - 37.4 °F 66% 29.80 in 15.0 mi NW 13.8 mph 20.7 mph N/A   Mostly Cloudy
4:33 PM 48.2 °F - 37.4 °F 66% 29.82 in 15.0 mi NNW 10.4 mph - N/A   Mostly Cloudy
5:00 PM 48.2 °F - 37.4 °F 66% 29.83 in 15.0 mi NNW 10.4 mph - N/A   Mostly Cloudy
6:00 PM 46.4 °F 41.9 °F 37.4 °F 71% 29.83 in 15.0 mi NW 9.2 mph - N/A   Mostly Cloudy
7:00 PM 44.6 °F 41.4 °F 37.4 °F 76% 29.83 in 15.0 mi NW 5.8 mph - N/A   Scattered Clouds
8:00 PM 44.6 °F 39.7 °F 37.4 °F 76% 29.86 in 15.0 mi NNW 9.2 mph - N/A   Mostly Cloudy
9:00 PM 45 °F - 38 °F 67% 29.87 in 15 mi NW 9.2 mph - -   Partly Cloudy
9:00 PM 44.6 °F 39.2 °F 37.4 °F 76% 29.87 in 15.0 mi NW 10.4 mph - N/A   Mostly Cloudy
10:00 PM 42.8 °F 38.6 °F 37.4 °F 81% 29.88 in 15.0 mi NW 6.9 mph - N/A   Scattered Clouds
11:00 PM 44.6 °F 42.2 °F 37.4 °F 76% 29.91 in 15.0 mi WNW 4.6 mph - N/A   Mostly Cloudy